Weather History for Deering, AK

Change the Weather History Date:

Monday, February 24, 2014

  Actual Average (PAOT) Record (PAOT)
Temperature  
Mean Temperature 13 °F -  
Max Temperature 21 °F - 37 °F (1989)
Min Temperature 5 °F -7 °F -52 °F (1968)
Degree Days  
Heating Degree Days 52 65  
Month to date heating degree days 1583  
Since 1 July heating degree days 9982  
Cooling Degree Days 0    
Month to date cooling degree days  
Year to date cooling degree days  
Moisture  
Dew Point 3 °F    
Average Humidity 66    
Maximum Humidity 80    
Minimum Humidity 53    
Precipitation  
Precipitation 0.00 in 0.02 in 0.23 in (1989)
Month to date precipitation 0.56  
Year to date precipitation 1.18  
Snow  
Snow 0.00 in 0.40 in 3.20 in (2003)
Month to date snowfall 8.2  
Since 1 July snowfall 46.2  
Snow Depth -    
Sea Level Pressure  
Sea Level Pressure 29.93 in    
Wind  
Wind Speed 7 mph (ENE)    
Max Wind Speed 15 mph    
Max Gust Speed -    
Visibility 10 miles    
Events      
T = Trace of Precipitation, MM = Missing Value Source: NWS Daily Summary

Daily Weather History Graph

Daily Weather History Graph

Search for Another Location

Airport:

Trip Planner

Search our weather history database for the weather conditions in past years. The results will help you decide how hot, cold, wet, or windy it might be!

Date:

Astronomy

Feb. 24, 2014 Rise Set
Actual Time 9:21 AM AKST 6:48 PM AKST
Civil Twilight 8:29 AM AKST 7:40 PM AKST
Nautical Twilight 7:29 AM AKST 8:40 PM AKST
Astronomical Twilight 6:29 AM AKST 9:41 PM AKST
Moon 7:03 AM AKST (2/24) 12:31 PM AKST (2/24)
Length of Visible Light 11h 11m
Length of Day
9h 26m
Waning Crescent, 26% of the Moon is Illuminated
Feb 24
Waning Crescent
Feb 28
New
Mar 8
First Quarter
Mar 16
Full
Mar 23
Last Quarter

Hourly Weather History & Observations

Time (AKST) Temp. Windchill Dew Point Humidity Pressure Visibility Wind Dir Wind Speed Gust Speed Precip Events Conditions
12:53 AM 10.9 °F -2.6 °F 3.9 °F 73% 29.93 in 10.0 mi ENE 10.4 mph - N/A   Clear
1:53 AM 10.9 °F 1.4 °F 3.9 °F 73% 29.93 in 10.0 mi ENE 5.8 mph - N/A   Clear
3:53 AM 9.0 °F -4.2 °F 1.9 °F 73% 29.94 in 10.0 mi NE 9.2 mph - N/A   Clear
4:53 AM 7.0 °F -3.3 °F 1.0 °F 77% 29.94 in 10.0 mi NNE 5.8 mph - N/A   Clear
5:53 AM 7.0 °F - 1.0 °F 77% 29.94 in 10.0 mi Calm Calm - N/A   Clear
6:53 AM 6.1 °F -0.9 °F 1.0 °F 80% 29.94 in 10.0 mi North 3.5 mph - N/A   Clear
7:53 AM 6.1 °F -2.8 °F -0.0 °F 76% 29.94 in 10.0 mi NNE 4.6 mph - N/A   Clear
8:53 AM 12.9 °F 0.7 °F 3.0 °F 65% 29.95 in 10.0 mi ENE 9.2 mph - N/A   Clear
9:53 AM 15.1 °F - 3.9 °F 61% 29.94 in 10.0 mi Calm Calm - N/A   Clear
10:53 AM 18.0 °F 9.8 °F 5.0 °F 57% 29.94 in 10.0 mi ENE 5.8 mph - N/A   Clear
11:53 AM 14.0 °F 3.9 °F 3.0 °F 62% 29.95 in 10.0 mi East 6.9 mph - N/A   Clear
12:53 PM 12.9 °F 2.6 °F 3.9 °F 67% 29.96 in 10.0 mi East 6.9 mph - N/A   Clear
1:53 PM 18.0 °F 6.9 °F 5.0 °F 57% 29.95 in 10.0 mi NE 9.2 mph - N/A   Clear
2:53 PM 21.0 °F 8.6 °F 6.1 °F 53% 29.95 in 10.0 mi East 12.7 mph - N/A   Clear
3:53 PM 21.0 °F 13.4 °F 6.1 °F 53% 29.93 in 10.0 mi ENE 5.8 mph - N/A   Clear
4:53 PM 21.0 °F 14.6 °F 6.1 °F 53% 29.92 in 10.0 mi South 4.6 mph - N/A   Clear
5:53 PM 19.9 °F 12.1 °F 6.1 °F 55% 29.91 in 10.0 mi Variable 5.8 mph - N/A   Clear
6:53 PM 16.0 °F 2.9 °F 5.0 °F 62% 29.90 in 10.0 mi SE 11.5 mph - N/A   Clear
7:53 PM 17.1 °F 2.5 °F 5.0 °F 59% 29.90 in 10.0 mi ESE 15.0 mph - N/A   Clear
8:53 PM 15.1 °F 7.7 °F 3.9 °F 61% 29.92 in 10.0 mi WSW 4.6 mph - N/A   Clear
9:53 PM 7.0 °F - -0.9 °F 70% 29.91 in 10.0 mi Calm Calm - N/A   Clear
10:53 PM 5.0 °F -8.1 °F -2.0 °F 73% 29.91 in 10.0 mi NE 8.1 mph - N/A   Clear
11:53 PM 5.0 °F -6.9 °F -2.0 °F 73% 29.91 in 10.0 mi NNE 6.9 mph - N/A   Clear